Weather History for Smyrna, TN

Change the Weather History Date:

Sunday, October 13, 2013

  Actual Average Record
Temperature  
Mean Temperature 68 °F -  
Max Temperature 82 °F 68 °F 83 °F (2008)
Min Temperature 55 °F 50 °F 29 °F (2006)
Cooling Degree Days 3    
Growing Degree Days 18 (Base 50)    
Moisture  
Dew Point 59 °F    
Average Humidity 89    
Maximum Humidity 100    
Minimum Humidity 47    
Precipitation  
Precipitation 0.00 in - - ()
Sea Level Pressure  
Sea Level Pressure 30.21 in    
Wind  
Wind Speed 1 mph (North)    
Max Wind Speed 10 mph    
Max Gust Speed -    
Visibility 6 miles    
Events Fog    
Averages and records for this station are not official NWS values.
T = Trace of Precipitation, MM = Missing Value Source: NWS Daily Summary

Daily Weather History Graph

Daily Weather History Graph

Search for Another Location

Airport:

Trip Planner

Search our weather history database for the weather conditions in past years. The results will help you decide how hot, cold, wet, or windy it might be!

Date:

Astronomy

Oct. 13, 2013 Rise Set
Actual Time 6:51 AM CDT 6:12 PM CDT
Civil Twilight 6:25 AM CDT 6:38 PM CDT
Nautical Twilight 5:55 AM CDT 7:08 PM CDT
Astronomical Twilight 5:26 AM CDT 7:37 PM CDT
Moon 2:54 PM CDT (10/13) 1:10 AM CDT (10/13)
Length of Visible Light 12h 12m
Length of Day
11h 21m
Waxing Gibbous, 69% of the Moon is Illuminated
Oct 13
Waxing Gibbous
Oct 18
Full
Oct 26
Last Quarter
Nov 3
New
Nov 9
First Quarter

Hourly Weather History & Observations

Time (CDT) Temp. Heat Index Dew Point Humidity Pressure Visibility Wind Dir Wind Speed Gust Speed Precip Events Conditions
12:56 AM 59.0 °F - 59.0 °F 100% 30.17 in 3.0 mi Calm Calm - N/A   Clear
1:06 AM 59.0 °F - 59.0 °F 100% 30.16 in 2.5 mi Calm Calm - N/A   Clear
1:15 AM 57.2 °F - 57.2 °F 100% 30.16 in 1.5 mi Calm Calm - N/A   Clear
1:37 AM 57.2 °F - 57.2 °F 100% 30.16 in 1.0 mi Calm Calm - N/A   Clear
1:41 AM 57.2 °F - 57.2 °F 100% 30.16 in 1.5 mi Calm Calm - N/A   Clear
1:47 AM 57.2 °F - 57.2 °F 100% 30.16 in 4.0 mi Calm Calm - N/A   Clear
1:56 AM 57.9 °F - 57.9 °F 100% 30.18 in 1.2 mi Calm Calm - N/A   Clear
1:59 AM 57.2 °F - 57.2 °F 100% 30.16 in 0.8 mi Calm Calm - N/A   Clear
2:09 AM 57.2 °F - 57.2 °F 100% 30.16 in 1.2 mi Calm Calm - N/A   Clear
2:27 AM 57.2 °F - 57.2 °F 100% 30.16 in 0.8 mi Calm Calm - N/A   Clear
2:32 AM 57.2 °F - 57.2 °F 100% 30.16 in 0.2 mi Calm Calm - N/A Fog Fog
2:44 AM 57.2 °F - 57.2 °F 100% 30.16 in 0.8 mi Calm Calm - N/A   Clear
2:46 AM 57.2 °F - 57.2 °F 100% 30.16 in 1.2 mi Calm Calm - N/A   Clear
2:48 AM 57.2 °F - 57.2 °F 100% 30.16 in 4.0 mi Calm Calm - N/A   Clear
2:56 AM 57.9 °F - 57.9 °F 100% 30.19 in 6.0 mi Calm Calm - N/A   Clear
3:06 AM 57.2 °F - 57.2 °F 100% 30.16 in 1.5 mi Calm Calm - N/A   Clear
3:08 AM 57.2 °F - 57.2 °F 100% 30.17 in 0.8 mi Calm Calm - N/A   Clear
3:17 AM 57.2 °F - 57.2 °F 100% 30.16 in 0.5 mi Calm Calm - N/A Fog Fog
3:45 AM 55.4 °F - 55.4 °F 100% 30.17 in 1.0 mi Calm Calm - N/A   Mostly Cloudy
3:56 AM 56.8 °F - 56.8 °F 100% 30.19 in 1.5 mi Calm Calm - N/A   Mostly Cloudy
4:02 AM 57.2 °F - 57.2 °F 100% 30.17 in 3.0 mi Calm Calm - N/A   Scattered Clouds
4:56 AM 56.8 °F - 56.8 °F 100% 30.20 in 3.0 mi Calm Calm - N/A   Clear
5:56 AM 57.9 °F - 57.9 °F 100% 30.22 in 9.0 mi Calm Calm - N/A   Scattered Clouds
6:56 AM 56.8 °F - 56.8 °F 100% 30.23 in 7.0 mi Calm Calm - N/A   Scattered Clouds
7:39 AM 60.8 °F - 60.8 °F 100% 30.22 in 9.0 mi Calm Calm - N/A   Mostly Cloudy
7:56 AM 61.0 °F - 59.9 °F 96% 30.25 in 10.0 mi Calm Calm - N/A   Mostly Cloudy
8:56 AM 65.8 °F - 63.0 °F 90% 30.27 in 10.0 mi Calm Calm - N/A   Mostly Cloudy
9:56 AM 70.9 °F - 63.9 °F 78% 30.29 in 10.0 mi North 3.5 mph - N/A   Partly Cloudy
10:56 AM 72.9 °F - 64.9 °F 76% 30.29 in 10.0 mi North 5.8 mph - N/A   Partly Cloudy
11:56 AM 77.0 °F - 64.9 °F 66% 30.28 in 10.0 mi Variable 4.6 mph - N/A   Clear
12:56 PM 77.9 °F - 63.9 °F 62% 30.26 in 10.0 mi NNE 6.9 mph - N/A   Scattered Clouds
1:56 PM 81.0 °F 82.2 °F 63.0 °F 54% 30.23 in 10.0 mi North 10.4 mph - N/A   Clear
2:56 PM 81.9 °F 82.2 °F 59.9 °F 47% 30.22 in 10.0 mi North 9.2 mph - N/A   Partly Cloudy
3:56 PM 81.0 °F 81.6 °F 59.9 °F 49% 30.22 in 10.0 mi NE 8.1 mph - N/A   Partly Cloudy
4:56 PM 79.9 °F - 61.0 °F 52% 30.21 in 10.0 mi North 6.9 mph - N/A   Clear
5:56 PM 74.8 °F - 61.9 °F 64% 30.22 in 10.0 mi North 5.8 mph - N/A   Clear
6:56 PM 68.0 °F - 61.9 °F 81% 30.25 in 10.0 mi NNW 5.8 mph - N/A   Clear
7:56 PM 70.9 °F - 63.0 °F 76% 30.26 in 10.0 mi North 6.9 mph - N/A   Clear
8:56 PM 66.9 °F - 61.9 °F 84% 30.27 in 10.0 mi North 5.8 mph - N/A   Clear
9:56 PM 68.9 °F - 63.0 °F 81% 30.27 in 10.0 mi North 8.1 mph - N/A   Clear
10:56 PM 65.8 °F - 63.0 °F 90% 30.27 in 10.0 mi North 5.8 mph - N/A   Clear
11:56 PM 64.9 °F - 61.9 °F 90% 30.25 in 10.0 mi NNE 5.8 mph - N/A   Clear